Weather History for Pawtucket, RI

Change the Weather History Date:

Sunday, June 16, 2013

  Actual Average Record
Temperature  
Mean Temperature 60 °F -  
Max Temperature 73 °F 72 °F 84 °F (2004)
Min Temperature 48 °F 54 °F 44 °F (1997)
Degree Days  
Heating Degree Days 4    
Growing Degree Days 10 (Base 50)    
Moisture  
Dew Point 53 °F    
Average Humidity 69    
Maximum Humidity 88    
Minimum Humidity 44    
Precipitation  
Precipitation 0.00 in - - ()
Sea Level Pressure  
Sea Level Pressure 29.89 in    
Wind  
Wind Speed 3 mph (SW)    
Max Wind Speed 9 mph    
Max Gust Speed 16 mph    
Visibility 10 miles    
Events      
Averages and records for this station are not official NWS values.
T = Trace of Precipitation, MM = Missing Value Source: NWS Daily Summary

Daily Weather History Graph

Daily Weather History Graph

Search for Another Location

Airport:

Trip Planner

Search our weather history database for the weather conditions in past years. The results will help you decide how hot, cold, wet, or windy it might be!

Date:

Astronomy

Jun. 16, 2013 Rise Set
Actual Time 5:10 AM EDT 8:23 PM EDT
Civil Twilight 4:35 AM EDT 8:57 PM EDT
Nautical Twilight 3:51 AM EDT 9:42 PM EDT
Astronomical Twilight 2:58 AM EDT 10:35 PM EDT
Moon 12:49 PM EDT (6/16) 12:20 AM EDT (6/16)
Length of Visible Light 16h 22m
Length of Day
15h 13m
Waxing Crescent, 49% of the Moon is Illuminated
Jun 16
Waxing Crescent
Jun 16
First Quarter
Jun 23
Full
Jun 30
Last Quarter
Jul 8
New

Hourly Weather History & Observations

Time (EDT) Temp. Dew Point Humidity Pressure Visibility Wind Dir Wind Speed Gust Speed Precip Events Conditions
12:15 AM 51.8 °F 46.4 °F 82% 29.97 in 10.0 mi Calm Calm - N/A   Clear
12:35 AM 53.6 °F 46.4 °F 77% 29.98 in 10.0 mi SSW 3.5 mph - N/A   Clear
12:55 AM 51.8 °F 46.4 °F 82% 29.98 in 10.0 mi SW 3.5 mph - N/A   Clear
1:15 AM 53.6 °F 48.2 °F 82% 29.97 in 10.0 mi Calm Calm - N/A   Clear
1:35 AM 51.8 °F 46.4 °F 82% 29.97 in 10.0 mi SW 3.5 mph - N/A   Clear
1:55 AM 51.8 °F 48.2 °F 88% 29.97 in 10.0 mi Calm Calm - N/A   Clear
2:15 AM 50.0 °F 46.4 °F 87% 29.98 in 10.0 mi Calm Calm - N/A   Clear
2:35 AM 51.8 °F 46.4 °F 82% 29.97 in 10.0 mi Calm Calm - N/A   Clear
2:55 AM 50.0 °F 46.4 °F 87% 29.97 in 10.0 mi Calm Calm - N/A   Clear
3:15 AM 50.0 °F 46.4 °F 87% 29.97 in 10.0 mi Calm Calm - N/A   Clear
3:35 AM 48.2 °F 44.6 °F 87% 29.97 in 10.0 mi SW 3.5 mph - N/A   Clear
3:55 AM 50.0 °F 44.6 °F 82% 29.97 in 10.0 mi SW 3.5 mph - N/A   Clear
4:15 AM 50.0 °F 46.4 °F 87% 29.96 in 10.0 mi SSW 3.5 mph - N/A   Clear
4:35 AM 48.2 °F 44.6 °F 87% 29.97 in 10.0 mi SSW 3.5 mph - N/A   Clear
4:55 AM 48.2 °F 44.6 °F 87% 29.97 in 10.0 mi SSW 3.5 mph - N/A   Clear
5:15 AM 48.2 °F 44.6 °F 87% 29.96 in 10.0 mi SSW 3.5 mph - N/A   Clear
5:35 AM 48.2 °F 44.6 °F 87% 29.97 in 10.0 mi SW 3.5 mph - N/A   Clear
5:55 AM 50.0 °F 46.4 °F 87% 29.97 in 10.0 mi SW 3.5 mph - N/A   Clear
6:15 AM 51.8 °F 46.4 °F 82% 29.97 in 10.0 mi Calm Calm - N/A   Clear
6:35 AM 55.4 °F 50.0 °F 82% 29.97 in 10.0 mi Calm Calm - N/A   Clear
6:55 AM 57.2 °F 51.8 °F 82% 29.97 in 10.0 mi Calm Calm - N/A   Clear
7:15 AM 60.8 °F 50.0 °F 68% 29.98 in 10.0 mi Calm Calm - N/A   Clear
7:35 AM 62.6 °F 50.0 °F 63% 29.98 in 10.0 mi West 3.5 mph - N/A   Clear
7:55 AM 64.4 °F 51.8 °F 64% 29.98 in 10.0 mi WSW 3.5 mph - N/A   Clear
8:15 AM 64.4 °F 51.8 °F 64% 29.98 in 10.0 mi Calm Calm - N/A   Clear
8:35 AM 66.2 °F 53.6 °F 64% 29.97 in 10.0 mi SW 3.5 mph - N/A   Clear
8:55 AM 66.2 °F 53.6 °F 64% 29.97 in 10.0 mi SW 5.8 mph - N/A   Clear
9:15 AM 68.0 °F 51.8 °F 56% 29.97 in 10.0 mi Calm Calm - N/A   Clear
9:35 AM 69.8 °F 53.6 °F 56% 29.97 in 10.0 mi WSW 4.6 mph - N/A   Clear
9:55 AM 71.6 °F 51.8 °F 50% 29.96 in 10.0 mi SW 8.1 mph - N/A   Clear
10:15 AM 69.8 °F 48.2 °F 46% 29.96 in 10.0 mi WSW 5.8 mph - N/A   Clear
10:35 AM 71.6 °F 50.0 °F 46% 29.95 in 10.0 mi WSW 3.5 mph - N/A   Clear
10:55 AM 73.4 °F 51.8 °F 47% 29.94 in 10.0 mi SSW 4.6 mph - N/A   Clear
11:15 AM 73.4 °F 50.0 °F 44% 29.94 in 10.0 mi SW 9.2 mph - N/A   Clear
11:35 AM 73.4 °F 51.8 °F 47% 29.93 in 10.0 mi SW 5.8 mph - N/A   Clear
11:55 AM 71.6 °F 51.8 °F 50% 29.93 in 10.0 mi SW 5.8 mph - N/A   Clear
12:15 PM 71.6 °F 51.8 °F 50% 29.92 in 10.0 mi SW 6.9 mph - N/A   Clear
12:35 PM 71.6 °F 53.6 °F 53% 29.92 in 10.0 mi SSW 5.8 mph - N/A   Partly Cloudy
12:55 PM 71.6 °F 53.6 °F 53% 29.91 in 10.0 mi SSW 6.9 mph - N/A   Mostly Cloudy
1:15 PM 73.4 °F 55.4 °F 53% 29.90 in 10.0 mi SSW 5.8 mph - N/A   Mostly Cloudy
1:35 PM 73.4 °F 55.4 °F 53% 29.89 in 10.0 mi South 3.5 mph - N/A   Scattered Clouds
1:55 PM 71.6 °F 53.6 °F 53% 29.88 in 10.0 mi SSW 5.8 mph - N/A   Mostly Cloudy
2:15 PM 71.6 °F 53.6 °F 53% 29.87 in 10.0 mi SSW 3.5 mph - N/A   Mostly Cloudy
2:35 PM 71.6 °F 53.6 °F 53% 29.86 in 10.0 mi SSW 4.6 mph - N/A   Mostly Cloudy
2:55 PM 71.6 °F 53.6 °F 53% 29.85 in 10.0 mi SSW 4.6 mph 16.1 mph N/A   Mostly Cloudy
3:15 PM 71.6 °F 53.6 °F 53% 29.84 in 10.0 mi South 3.5 mph - N/A   Overcast
3:35 PM 71.6 °F 51.8 °F 50% 29.83 in 10.0 mi South 5.8 mph - N/A   Overcast
3:55 PM 69.8 °F 51.8 °F 53% 29.82 in 10.0 mi SSW 4.6 mph - N/A   Mostly Cloudy
4:15 PM 71.6 °F 53.6 °F 53% 29.81 in 10.0 mi SSW 4.6 mph - N/A   Mostly Cloudy
4:35 PM 69.8 °F 53.6 °F 56% 29.81 in 10.0 mi SSW 6.9 mph - N/A   Mostly Cloudy
4:55 PM 69.8 °F 53.6 °F 56% 29.80 in 10.0 mi SSW 4.6 mph - N/A   Mostly Cloudy
5:35 PM 71.6 °F 55.4 °F 57% 29.78 in 10.0 mi SSW 8.1 mph - N/A   Mostly Cloudy
5:55 PM 69.8 °F 57.2 °F 64% 29.78 in 10.0 mi South 4.6 mph - N/A   Mostly Cloudy
6:15 PM 71.6 °F 57.2 °F 60% 29.78 in 10.0 mi SW 3.5 mph - N/A   Scattered Clouds
6:35 PM 69.8 °F 59.0 °F 68% 29.78 in 10.0 mi SSW 5.8 mph - N/A   Clear
6:55 PM 69.8 °F 59.0 °F 68% 29.77 in 10.0 mi SSW 5.8 mph - N/A   Partly Cloudy
7:15 PM 69.8 °F 59.0 °F 68% 29.77 in 10.0 mi SSW 4.6 mph - N/A   Mostly Cloudy
7:35 PM 69.8 °F 59.0 °F 68% 29.77 in 10.0 mi SW 6.9 mph - N/A   Partly Cloudy
7:55 PM 68.0 °F 59.0 °F 73% 29.77 in 10.0 mi SSW 5.8 mph - N/A   Partly Cloudy
8:15 PM 68.0 °F 60.8 °F 78% 29.77 in 10.0 mi SSW 5.8 mph - N/A   Clear
8:35 PM 68.0 °F 60.8 °F 78% 29.78 in 10.0 mi SSW 5.8 mph - N/A   Scattered Clouds
8:55 PM 68.0 °F 60.8 °F 78% 29.78 in 10.0 mi SW 3.5 mph - N/A   Partly Cloudy
9:15 PM 66.2 °F 60.8 °F 83% 29.78 in 10.0 mi SW 3.5 mph - N/A   Scattered Clouds
9:35 PM 66.2 °F 60.8 °F 83% 29.79 in 10.0 mi SSW 3.5 mph - N/A   Mostly Cloudy
9:55 PM 66.2 °F 60.8 °F 83% 29.79 in 10.0 mi SW 3.5 mph - N/A   Partly Cloudy
10:15 PM 66.2 °F 60.8 °F 83% 29.79 in 10.0 mi SW 3.5 mph - N/A   Clear
10:35 PM 66.2 °F 60.8 °F 83% 29.80 in 10.0 mi WSW 6.9 mph - N/A   Clear
10:55 PM 66.2 °F 60.8 °F 83% 29.81 in 10.0 mi WSW 5.8 mph - N/A   Clear
11:15 PM 66.2 °F 60.8 °F 83% 29.81 in 10.0 mi WSW 4.6 mph - N/A   Clear
11:35 PM 66.2 °F 60.8 °F 83% 29.82 in 10.0 mi WSW 5.8 mph - N/A   Clear
11:55 PM 66.2 °F 60.8 °F 83% 29.83 in 10.0 mi West 8.1 mph - N/A   Clear